Time,TemperatureF,DewpointF,PressureIn,WindDirection,WindDirectionDegrees,WindSpeedMPH,WindSpeedGustMPH,Humidity,HourlyPrecipIn,Conditions,Clouds,dailyrainin,SoftwareType,DateUTC
2013-10-22 00:01:00,47.9,43.0,29.85,NNW,340,0.0,0.0,84,0.00,,,0.00,weatherlink.com 1.10,2013-10-22 04:01:00,
2013-10-22 00:16:00,48.0,43.0,29.85,NNW,340,0.0,0.0,84,0.00,,,0.00,weatherlink.com 1.10,2013-10-22 04:16:00,
2013-10-22 00:31:00,47.9,43.0,29.85,NNW,340,0.0,0.0,84,0.00,,,0.00,weatherlink.com 1.10,2013-10-22 04:31:00,
2013-10-22 00:46:00,48.0,43.0,29.84,NNW,340,0.0,0.0,84,0.00,,,0.00,weatherlink.com 1.10,2013-10-22 04:46:00,
2013-10-22 01:01:00,47.9,43.0,29.84,NNW,340,0.0,0.0,84,0.00,,,0.00,weatherlink.com 1.10,2013-10-22 05:01:00,
2013-10-22 01:16:00,48.0,44.0,29.84,NNW,340,0.0,0.0,85,0.00,,,0.00,weatherlink.com 1.10,2013-10-22 05:16:00,
2013-10-22 01:31:00,47.9,44.0,29.83,NNW,340,0.0,0.0,85,0.00,,,0.00,weatherlink.com 1.10,2013-10-22 05:31:00,
2013-10-22 01:47:00,48.0,44.0,29.83,NNW,340,0.0,0.0,85,0.00,,,0.00,weatherlink.com 1.10,2013-10-22 05:47:00,
2013-10-22 02:02:00,48.0,44.0,29.83,NNW,340,0.0,0.0,86,0.00,,,0.00,weatherlink.com 1.10,2013-10-22 06:02:00,
2013-10-22 02:17:00,48.0,44.0,29.83,NNW,340,0.0,0.0,86,0.00,,,0.00,weatherlink.com 1.10,2013-10-22 06:17:00,
2013-10-22 02:32:00,48.1,44.0,29.83,NNW,340,0.0,0.0,87,0.00,,,0.00,weatherlink.com 1.10,2013-10-22 06:32:00,
2013-10-22 02:47:00,47.9,44.0,29.83,NNW,340,0.0,0.0,86,0.00,,,0.00,weatherlink.com 1.10,2013-10-22 06:47:00,
2013-10-22 03:02:00,47.2,43.0,29.82,NNW,340,0.0,0.0,86,0.00,,,0.00,weatherlink.com 1.10,2013-10-22 07:02:00,
2013-10-22 03:17:00,46.7,43.0,29.82,NNW,340,0.0,0.0,87,0.00,,,0.00,weatherlink.com 1.10,2013-10-22 07:17:00,
2013-10-22 03:32:00,46.9,44.0,29.82,NNW,340,0.0,0.0,88,0.00,,,0.00,weatherlink.com 1.10,2013-10-22 07:32:00,
2013-10-22 03:47:00,47.1,44.0,29.82,NNW,340,0.0,0.0,88,0.00,,,0.00,weatherlink.com 1.10,2013-10-22 07:47:00,
2013-10-22 04:02:00,47.9,44.0,29.82,NW,306,0.0,0.0,87,0.00,,,0.00,weatherlink.com 1.10,2013-10-22 08:02:00,
2013-10-22 04:17:00,50.0,46.0,29.82,WNW,297,0.0,2.0,85,0.00,,,0.00,weatherlink.com 1.10,2013-10-22 08:17:00,
2013-10-22 04:32:00,50.6,46.0,29.82,WNW,297,0.0,0.0,84,0.00,,,0.00,weatherlink.com 1.10,2013-10-22 08:32:00,
2013-10-22 04:47:00,50.9,46.0,29.83,WNW,293,0.0,1.0,84,0.00,,,0.00,weatherlink.com 1.10,2013-10-22 08:47:00,
2013-10-22 05:02:00,50.9,47.0,29.83,WNW,299,0.0,1.0,85,0.00,,,0.00,weatherlink.com 1.10,2013-10-22 09:02:00,
2013-10-22 05:17:00,50.7,47.0,29.83,WNW,297,0.0,1.0,86,0.00,,,0.00,weatherlink.com 1.10,2013-10-22 09:17:00,
2013-10-22 05:32:00,50.6,47.0,29.83,West,278,0.0,1.0,87,0.00,,,0.00,weatherlink.com 1.10,2013-10-22 09:32:00,
2013-10-22 05:47:00,50.3,47.0,29.84,SSW,208,0.0,1.0,89,0.00,,,0.00,weatherlink.com 1.10,2013-10-22 09:47:00,
2013-10-22 06:02:00,50.0,47.0,29.84,WNW,291,0.0,1.0,90,0.01,,,0.01,weatherlink.com 1.10,2013-10-22 10:02:00,
2013-10-22 06:17:00,49.8,47.0,29.85,NNW,342,0.0,2.0,91,0.03,,,0.03,weatherlink.com 1.10,2013-10-22 10:17:00,
2013-10-22 06:32:00,49.4,47.0,29.86,SSE,159,1.0,9.0,91,0.05,,,0.05,weatherlink.com 1.10,2013-10-22 10:32:00,
2013-10-22 06:47:00,48.5,46.0,29.87,NW,312,0.0,4.0,92,0.07,,,0.07,weatherlink.com 1.10,2013-10-22 10:47:00,
2013-10-22 07:02:00,47.9,46.0,29.87,North,6,1.0,4.0,92,0.08,,,0.09,weatherlink.com 1.10,2013-10-22 11:02:00,
2013-10-22 07:17:00,47.4,45.0,29.86,West,270,1.0,2.0,92,0.07,,,0.10,weatherlink.com 1.10,2013-10-22 11:17:00,
2013-10-22 07:32:00,47.1,45.0,29.86,WNW,293,0.0,2.0,93,0.06,,,0.11,weatherlink.com 1.10,2013-10-22 11:32:00,
2013-10-22 07:47:00,45.0,43.0,29.88,NW,308,2.0,8.0,91,0.05,,,0.12,weatherlink.com 1.10,2013-10-22 11:47:00,
2013-10-22 08:02:00,43.3,41.0,29.89,WNW,300,4.0,9.0,91,0.03,,,0.12,weatherlink.com 1.10,2013-10-22 12:02:00,
2013-10-22 08:17:00,42.4,40.0,29.89,NW,313,2.0,6.0,91,0.03,,,0.13,weatherlink.com 1.10,2013-10-22 12:17:00,
2013-10-22 08:32:00,41.7,39.0,29.90,WNW,302,0.0,3.0,91,0.02,,,0.13,weatherlink.com 1.10,2013-10-22 12:32:00,
2013-10-22 08:47:00,41.6,39.0,29.91,West,262,2.0,3.0,91,0.01,,,0.13,weatherlink.com 1.10,2013-10-22 12:47:00,
2013-10-22 09:02:00,41.8,39.0,29.91,SSW,197,1.0,2.0,91,0.01,,,0.13,weatherlink.com 1.10,2013-10-22 13:02:00,
2013-10-22 09:17:00,41.8,39.0,29.93,NW,312,0.0,3.0,90,0.00,,,0.13,weatherlink.com 1.10,2013-10-22 13:17:00,
2013-10-22 09:32:00,41.6,39.0,29.93,WNW,297,0.0,5.0,89,0.00,,,0.13,weatherlink.com 1.10,2013-10-22 13:32:00,
2013-10-22 09:48:00,41.7,38.0,29.93,NW,313,1.0,5.0,88,0.00,,,0.13,weatherlink.com 1.10,2013-10-22 13:48:00,
2013-10-22 10:03:00,41.9,39.0,29.94,NW,304,3.0,4.0,88,0.00,,,0.13,weatherlink.com 1.10,2013-10-22 14:03:00,
2013-10-22 10:18:00,42.2,39.0,29.94,SSW,207,1.0,5.0,87,0.00,,,0.13,weatherlink.com 1.10,2013-10-22 14:18:00,
2013-10-22 10:33:00,42.3,37.0,29.94,SW,236,3.0,8.0,82,0.00,,,0.13,weatherlink.com 1.10,2013-10-22 14:33:00,
2013-10-22 10:48:00,42.8,37.0,29.94,SW,235,3.0,5.0,80,0.00,,,0.13,weatherlink.com 1.10,2013-10-22 14:48:00,
2013-10-22 11:03:00,43.0,37.0,29.93,WSW,237,0.0,4.0,78,0.00,,,0.13,weatherlink.com 1.10,2013-10-22 15:03:00,
2013-10-22 11:18:00,44.3,38.0,29.93,WNW,301,1.0,6.0,77,0.00,,,0.13,weatherlink.com 1.10,2013-10-22 15:18:00,
2013-10-22 11:33:00,44.2,37.0,29.93,West,269,1.0,6.0,75,0.00,,,0.13,weatherlink.com 1.10,2013-10-22 15:33:00,
2013-10-22 11:48:00,45.2,37.0,29.93,West,274,1.0,8.0,74,0.00,,,0.13,weatherlink.com 1.10,2013-10-22 15:48:00,
2013-10-22 12:03:00,45.5,37.0,29.92,WSW,253,1.0,11.0,72,0.00,,,0.13,weatherlink.com 1.10,2013-10-22 16:03:00,
2013-10-22 12:18:00,46.4,37.0,29.92,West,270,3.0,11.0,71,0.00,,,0.13,weatherlink.com 1.10,2013-10-22 16:18:00,
2013-10-22 12:33:00,46.7,37.0,29.91,West,273,5.0,9.0,70,0.00,,,0.13,weatherlink.com 1.10,2013-10-22 16:33:00,
2013-10-22 12:48:00,47.6,37.0,29.91,NW,307,0.0,5.0,68,0.00,,,0.13,weatherlink.com 1.10,2013-10-22 16:48:00,
2013-10-22 13:03:00,46.7,36.0,29.91,NW,324,3.0,6.0,66,0.00,,,0.13,weatherlink.com 1.10,2013-10-22 17:03:00,
2013-10-22 13:18:00,48.7,36.0,29.90,WSW,240,3.0,5.0,62,0.00,,,0.13,weatherlink.com 1.10,2013-10-22 17:18:00,
2013-10-22 13:33:00,47.4,35.0,29.90,NW,314,1.0,7.0,62,0.00,,,0.13,weatherlink.com 1.10,2013-10-22 17:33:00,
2013-10-22 13:48:00,47.5,35.0,29.89,SW,236,2.0,5.0,62,0.00,,,0.13,weatherlink.com 1.10,2013-10-22 17:48:00,
2013-10-22 14:03:00,49.6,36.0,29.89,NW,318,5.0,6.0,59,0.00,,,0.13,weatherlink.com 1.10,2013-10-22 18:03:00,
2013-10-22 14:18:00,49.8,34.0,29.88,WSW,252,2.0,8.0,54,0.00,,,0.13,weatherlink.com 1.10,2013-10-22 18:18:00,
2013-10-22 14:33:00,50.6,34.0,29.87,WNW,297,2.0,9.0,54,0.00,,,0.13,weatherlink.com 1.10,2013-10-22 18:33:00,
2013-10-22 14:48:00,50.2,34.0,29.87,WNW,298,3.0,9.0,54,0.00,,,0.13,weatherlink.com 1.10,2013-10-22 18:48:00,
2013-10-22 15:03:00,50.2,33.0,29.87,West,267,0.0,6.0,51,0.00,,,0.13,weatherlink.com 1.10,2013-10-22 19:03:00,
2013-10-22 15:18:00,50.9,33.0,29.87,WNW,295,3.0,6.0,51,0.00,,,0.13,weatherlink.com 1.10,2013-10-22 19:18:00,
2013-10-22 15:33:00,51.3,33.0,29.87,West,278,1.0,7.0,50,0.00,,,0.13,weatherlink.com 1.10,2013-10-22 19:33:00,
2013-10-22 15:48:00,51.5,32.0,29.87,West,269,0.0,5.0,48,0.00,,,0.13,weatherlink.com 1.10,2013-10-22 19:48:00,
2013-10-22 16:03:00,50.1,32.0,29.87,WNW,283,0.0,7.0,50,0.00,,,0.13,weatherlink.com 1.10,2013-10-22 20:03:00,
2013-10-22 16:18:00,50.7,32.0,29.86,WSW,240,0.0,6.0,50,0.00,,,0.13,weatherlink.com 1.10,2013-10-22 20:18:00,
2013-10-22 16:33:00,51.8,34.0,29.86,West,276,2.0,6.0,50,0.00,,,0.13,weatherlink.com 1.10,2013-10-22 20:33:00,
2013-10-22 16:48:00,51.2,31.0,29.86,SW,231,4.0,6.0,47,0.00,,,0.13,weatherlink.com 1.10,2013-10-22 20:48:00,
2013-10-22 17:03:00,51.3,33.0,29.86,NW,308,1.0,3.0,49,0.00,,,0.13,weatherlink.com 1.10,2013-10-22 21:03:00,
2013-10-22 17:18:00,50.2,32.0,29.86,NW,315,3.0,4.0,50,0.00,,,0.13,weatherlink.com 1.10,2013-10-22 21:18:00,
2013-10-22 17:33:00,49.0,30.0,29.86,NW,306,1.0,3.0,48,0.00,,,0.13,weatherlink.com 1.10,2013-10-22 21:33:00,
2013-10-22 17:48:00,47.9,32.0,29.86,WNW,302,0.0,2.0,54,0.00,,,0.13,weatherlink.com 1.10,2013-10-22 21:48:00,
2013-10-22 18:03:00,47.1,32.0,29.86,WNW,293,0.0,1.0,56,0.00,,,0.13,weatherlink.com 1.10,2013-10-22 22:03:00,
2013-10-22 18:18:00,45.7,31.0,29.86,WNW,294,0.0,0.0,58,0.00,,,0.13,weatherlink.com 1.10,2013-10-22 22:18:00,
2013-10-22 18:33:00,44.2,32.0,29.86,WNW,293,0.0,0.0,63,0.00,,,0.13,weatherlink.com 1.10,2013-10-22 22:33:00,
2013-10-22 18:48:00,42.7,32.0,29.86,West,277,0.0,1.0,67,0.00,,,0.13,weatherlink.com 1.10,2013-10-22 22:48:00,
2013-10-22 19:03:00,41.1,32.0,29.86,West,277,0.0,0.0,70,0.00,,,0.13,weatherlink.com 1.10,2013-10-22 23:03:00,
2013-10-22 19:18:00,39.8,32.0,29.86,West,277,0.0,0.0,74,0.00,,,0.13,weatherlink.com 1.10,2013-10-22 23:18:00,
2013-10-22 19:33:00,38.7,32.0,29.87,West,277,0.0,0.0,76,0.00,,,0.13,weatherlink.com 1.10,2013-10-22 23:33:00,
2013-10-22 19:48:00,38.0,32.0,29.87,West,280,0.0,1.0,80,0.00,,,0.13,weatherlink.com 1.10,2013-10-22 23:48:00,
2013-10-22 20:03:00,37.6,33.0,29.87,West,280,0.0,0.0,82,0.00,,,0.13,weatherlink.com 1.10,2013-10-23 00:03:00,
2013-10-22 20:18:00,37.4,33.0,29.87,West,280,0.0,0.0,83,0.00,,,0.13,weatherlink.com 1.10,2013-10-23 00:18:00,
2013-10-22 20:33:00,36.8,32.0,29.87,West,280,0.0,0.0,84,0.00,,,0.13,weatherlink.com 1.10,2013-10-23 00:33:00,
2013-10-22 20:48:00,36.9,33.0,29.87,West,280,0.0,0.0,86,0.00,,,0.13,weatherlink.com 1.10,2013-10-23 00:48:00,
2013-10-22 21:03:00,36.7,33.0,29.87,West,280,0.0,0.0,86,0.00,,,0.13,weatherlink.com 1.10,2013-10-23 01:03:00,
2013-10-22 21:18:00,36.5,33.0,29.87,West,280,0.0,0.0,87,0.00,,,0.13,weatherlink.com 1.10,2013-10-23 01:18:00,
2013-10-22 21:34:00,36.1,33.0,29.87,West,280,0.0,0.0,87,0.00,,,0.13,weatherlink.com 1.10,2013-10-23 01:34:00,
2013-10-22 21:49:00,35.5,32.0,29.87,West,280,0.0,0.0,88,0.00,,,0.13,weatherlink.com 1.10,2013-10-23 01:49:00,
2013-10-22 22:04:00,35.8,33.0,29.88,West,280,0.0,0.0,89,0.00,,,0.13,weatherlink.com 1.10,2013-10-23 02:04:00,
2013-10-22 22:19:00,35.6,33.0,29.87,West,280,0.0,0.0,89,0.00,,,0.13,weatherlink.com 1.10,2013-10-23 02:19:00,
2013-10-22 22:34:00,35.7,33.0,29.87,West,280,0.0,0.0,91,0.00,,,0.13,weatherlink.com 1.10,2013-10-23 02:34:00,
2013-10-22 22:49:00,36.0,34.0,29.87,West,280,0.0,0.0,91,0.00,,,0.13,weatherlink.com 1.10,2013-10-23 02:49:00,
2013-10-22 23:04:00,36.2,34.0,29.86,West,280,0.0,0.0,91,0.00,,,0.13,weatherlink.com 1.10,2013-10-23 03:04:00,
2013-10-22 23:19:00,36.0,34.0,29.86,West,280,0.0,0.0,91,0.00,,,0.13,weatherlink.com 1.10,2013-10-23 03:19:00,
2013-10-22 23:34:00,35.8,34.0,29.86,West,280,0.0,0.0,91,0.00,,,0.13,weatherlink.com 1.10,2013-10-23 03:34:00,
2013-10-22 23:49:00,35.5,33.0,29.85,West,280,0.0,0.0,91,0.00,,,0.13,weatherlink.com 1.10,2013-10-23 03:49:00,